CAPE
0 0 0 0 0 0 0 0 0 0 0 0 5 1 1 6 10 3 0 0 15 16
0 0 0 0 0 0 0 0 0 0 0 0 3 0 0 7 2 1 0 0 0 0
0 0 0 0 0 0 0 0 0 0 0 0 0 0 0 0 0 0 0 0 0 0
0 0 0 0 0 0 0 0 0 0 0 0 0 0 0 0 0 0 0 0 0 0
0 0 0 0 0 0 0 0 0 0 0 0 0 0 0 0 0 0 0 0 0 0
0 0 0 0 0 0 0 0 0 0 0 0 0 0 0 0 0 0 0 0 0 0
0 0 0 0 0 0 0 0 0 0 0 0 0 0 0 0 0 0 0 0 0 0
0 0 0 0 0 0 0 0 0 0 0 0 0 0 0 0 0 0 0 0 0 0
0 0 0 0 0 0 0 0 0 0 0 0 0 0 0 0 0 0 0 0 0 0
0 0 0 0 0 0 0 0 0 0 0 0 0 0 0 0 0 0 0 0 0 0
0 0 0 0 0 0 0 0 0 0 0 0 0 0 0 0 0 0 0 0 0 0
0 0 0 0 0 0 0 0 0 0 0 0 0 0 0 0 0 0 0 0 0 0
0 0 0 0 0 0 0 0 0 0 0 0 0 0 0 0 0 0 0 0 0 0
0 0 0 0 0 0 0 0 0 0 0 0 0 0 0 0 0 0 0 0 0 0
CIN
0 0 0 0 0 0 0 0 0 0 0 -6 -4 -17 -18 -11 -11 -11 0 -3 -18 -19
0 0 0 0 0 0 0 0 0 0 0 0 -5 0 0 -12 -15 -10 0 0 0 0
0 0 0 0 0 0 0 0 0 0 0 0 0 0 0 0 0 0 0 0 0 0
0 0 0 0 0 0 0 0 0 0 0 0 0 0 0 0 0 0 0 0 0 0
0 0 0 0 0 0 0 0 0 0 0 0 0 0 0 0 0 0 0 0 0 0
0 0 0 0 0 0 0 0 0 0 0 0 0 0 0 0 0 0 0 0 0 0
0 0 0 0 0 0 0 0 0 0 0 0 0 0 0 0 0 0 0 0 0 0
0 0 0 0 0 0 0 0 0 0 0 0 0 0 0 0 0 0 0 0 0 0
0 0 0 0 0 0 0 0 0 0 0 0 0 0 0 0 0 0 0 0 0 0
0 0 0 0 0 0 0 0 0 0 0 0 0 0 0 0 0 0 0 0 0 0
0 0 0 0 0 0 0 0 0 0 0 0 0 0 0 0 0 0 0 0 0 0
0 0 0 0 0 0 0 0 0 0 0 0 0 0 0 0 0 0 0 0 0 0
0 0 0 0 0 0 0 0 0 0 0 0 0 0 0 0 0 0 0 0 0 0
0 0 0 0 0 0 0 0 0 0 0 0 0 0 0 0 0 0 0 0 0 0
Wind_Speed
8 5 5 6 4 4 4 4 5 5 4 6 6 5 6 5 4 3 4 6 4 3
7 7 7 7 5 4 5 4 6 6 5 5 5 5 7 4 4 4 3 5 5 3
8 7 7 6 7 7 6 5 6 6 5 5 4 6 5 3 4 4 4 3 5 3
7 7 6 6 6 7 6 6 6 6 5 5 5 5 4 5 5 4 4 3 4 5
7 6 7 7 8 7 7 6 7 6 6 6 6 6 6 5 4 5 5 3 4 4
7 6 8 8 8 7 7 7 7 6 7 6 6 6 6 6 6 5 4 3 3 3
8 7 8 8 7 8 7 8 7 7 7 7 7 6 6 6 6 5 5 5 4 4
8 7 7 7 8 8 7 8 8 7 7 7 7 6 7 7 6 6 6 5 5 4
7 7 8 8 8 7 8 8 7 8 8 8 7 11 14 10 6 6 7 6 6 5
7 8 9 9 7 8 9 7 9 9 8 10 8 13 14 14 5 6 6 7 6 6
8 8 8 7 7 8 6 8 8 9 9 9 9 15 15 14 7 6 7 7 7 7
7 8 7 8 9 7 5 6 7 6 8 9 10 13 15 12 7 7 8 6 6 7
7 7 10 9 9 5 5 7 5 7 7 11 11 12 16 13 6 8 6 5 7 15
7 9 9 8 4 4 5 5 5 6 6 7 9 8 15 17 7 8 5 6 6 6
Wind_Direction
228 223 223 228 232 241 248 258 272 276 287 290 287 302 297 284 284 327 325 311 331 312
227 224 227 230 225 228 243 248 253 261 277 285 280 302 294 285 295 314 301 302 308 301
234 227 228 225 227 226 241 242 252 261 271 284 302 290 302 322 323 317 306 307 317 314
244 235 231 228 233 227 228 232 238 243 255 262 263 272 280 278 281 288 297 298 304 306
246 233 232 234 232 223 232 230 234 239 235 238 241 245 242 254 265 258 263 285 316 310
258 246 244 239 232 226 226 226 228 228 235 245 250 254 254 249 254 252 226 234 250 266
269 247 244 242 235 231 221 225 222 222 228 228 232 235 245 250 253 241 224 224 217 220
260 257 252 248 239 237 229 235 226 223 228 229 229 230 227 231 232 231 232 236 230 221
278 273 259 252 241 233 236 227 219 229 231 232 238 233 231 224 218 221 216 221 228 222
282 279 271 252 239 238 237 229 229 228 214 234 233 238 242 238 220 229 226 220 210 213
280 278 279 267 251 248 228 223 225 229 226 233 236 231 232 231 216 226 240 234 218 207
272 281 284 276 266 252 235 234 223 218 213 216 246 227 225 217 202 219 232 227 224 217
287 279 283 274 270 253 229 243 228 241 222 225 245 221 223 217 201 224 225 222 226 229
281 282 279 277 259 266 262 262 262 255 249 229 230 235 226 225 200 221 211 220 227 222